contact:dominique.lefevre@mio.osupytheas.fr, maurice.libes@osupytheas.fr, didier.mallarino@osupytheas.fr
Project:EMSO http://www.emso-fr.org/EMSO-France
Depth: 2436.0 m
Title:EMSO Ligure Ouest : Data MII capteur CSTAR
DateTime,Latitude,Longitude,Instrument_Serial,Reference_Counts,Signal_Counts,Corrected_Signal_raw_counts,Calculated_Beam_c_inverse_meters,Internal_thermistor_counts
DateTime,Latitude,Longitude,Instrument_Serial,Reference_Counts,Signal_Counts,Corrected_Signal_raw_counts,Calculated_Beam_c_inverse_meters,Internal_thermistor_counts
2022-01-04T00:02:21,42.805,6.029,CST-1368DR,4995,6364,13616,0.548,551
2022-01-04T00:05:22,42.805,6.029,CST-1368DR,4995,6364,13616,0.548,551
2022-01-04T00:08:24,42.805,6.029,CST-1368DR,4995,6364,13617,0.548,551
2022-01-04T00:11:25,42.805,6.029,CST-1368DR,4995,6365,13618,0.548,551
2022-01-04T00:14:27,42.805,6.029,CST-1368DR,4995,6365,13618,0.548,551
2022-01-04T00:17:29,42.805,6.029,CST-1368DR,4995,6365,13618,0.548,551
2022-01-04T00:20:30,42.805,6.029,CST-1368DR,4995,6365,13618,0.548,551
2022-01-04T00:23:32,42.805,6.029,CST-1368DR,4995,6365,13618,0.548,551
2022-01-04T00:26:33,42.805,6.029,CST-1368DR,4995,6365,13618,0.548,551
2022-01-04T00:29:35,42.805,6.029,CST-1368DR,4995,6366,13620,0.547,551
2022-01-04T00:32:36,42.805,6.029,CST-1368DR,4995,6364,13617,0.548,551
2022-01-04T00:35:38,42.805,6.029,CST-1368DR,4995,6365,13619,0.547,551
2022-01-04T00:38:40,42.805,6.029,CST-1368DR,4995,6366,13620,0.547,551
2022-01-04T00:41:41,42.805,6.029,CST-1368DR,4995,6365,13619,0.547,551
2022-01-04T00:44:43,42.805,6.029,CST-1368DR,4995,6365,13618,0.548,551
2022-01-04T00:47:44,42.805,6.029,CST-1368DR,4995,6365,13618,0.548,551
2022-01-04T00:50:46,42.805,6.029,CST-1368DR,4995,6364,13615,0.548,551
2022-01-04T00:53:47,42.805,6.029,CST-1368DR,4995,6365,13618,0.548,551
2022-01-04T00:56:49,42.805,6.029,CST-1368DR,4995,6364,13617,0.548,551
2022-01-04T00:59:51,42.805,6.029,CST-1368DR,4995,6365,13618,0.548,551
2022-01-04T01:02:52,42.805,6.029,CST-1368DR,4995,6364,13617,0.548,551
2022-01-04T01:05:54,42.805,6.029,CST-1368DR,4995,6364,13617,0.548,551
2022-01-04T01:08:55,42.805,6.029,CST-1368DR,4995,6364,13616,0.548,551
2022-01-04T01:11:57,42.805,6.029,CST-1368DR,4995,6364,13616,0.548,551
2022-01-04T01:14:59,42.805,6.029,CST-1368DR,4995,6364,13615,0.548,551
2022-01-04T01:18:00,42.805,6.029,CST-1368DR,4995,6364,13616,0.548,551
2022-01-04T01:21:02,42.805,6.029,CST-1368DR,4995,6365,13618,0.548,551
2022-01-04T01:24:03,42.805,6.029,CST-1368DR,4995,6363,13614,0.549,551
2022-01-04T01:27:05,42.805,6.029,CST-1368DR,4995,6364,13616,0.548,551
2022-01-04T01:30:06,42.805,6.029,CST-1368DR,4995,6364,13616,0.548,551
2022-01-04T01:33:08,42.805,6.029,CST-1368DR,4995,6364,13616,0.548,551
2022-01-04T01:36:10,42.805,6.029,CST-1368DR,4995,6364,13616,0.548,551
2022-01-04T01:39:11,42.805,6.029,CST-1368DR,4995,6364,13616,0.548,551
2022-01-04T01:42:13,42.805,6.029,CST-1368DR,4995,6365,13618,0.548,551
2022-01-04T01:45:14,42.805,6.029,CST-1368DR,4995,6364,13616,0.548,551
2022-01-04T01:48:16,42.805,6.029,CST-1368DR,4995,6364,13616,0.548,551
2022-01-04T01:51:18,42.805,6.029,CST-1368DR,4995,6363,13615,0.548,550
2022-01-04T01:54:19,42.805,6.029,CST-1368DR,4995,6364,13616,0.548,551
2022-01-04T01:57:21,42.805,6.029,CST-1368DR,4995,6364,13615,0.548,551
2022-01-04T02:00:22,42.805,6.029,CST-1368DR,4995,6364,13616,0.548,551
2022-01-04T02:03:24,42.805,6.029,CST-1368DR,4995,6364,13616,0.548,551
2022-01-04T02:06:25,42.805,6.029,CST-1368DR,4995,6363,13615,0.548,551
2022-01-04T02:09:27,42.805,6.029,CST-1368DR,4995,6364,13616,0.548,551
2022-01-04T02:12:29,42.805,6.029,CST-1368DR,4995,6364,13616,0.548,551
2022-01-04T02:15:30,42.805,6.029,CST-1368DR,4995,6364,13616,0.548,551
2022-01-04T02:18:32,42.805,6.029,CST-1368DR,4995,6363,13615,0.548,551
2022-01-04T02:21:33,42.805,6.029,CST-1368DR,4995,6364,13616,0.548,551
2022-01-04T02:24:35,42.805,6.029,CST-1368DR,4995,6364,13615,0.548,551
2022-01-04T02:27:37,42.805,6.029,CST-1368DR,4995,6363,13614,0.549,551
2022-01-04T02:30:38,42.805,6.029,CST-1368DR,4995,6364,13616,0.548,551
2022-01-04T02:33:40,42.805,6.029,CST-1368DR,4995,6364,13616,0.548,551
2022-01-04T02:36:41,42.805,6.029,CST-1368DR,4995,6363,13615,0.548,551
2022-01-04T02:39:43,42.805,6.029,CST-1368DR,4995,6363,13615,0.548,551
2022-01-04T02:42:44,42.805,6.029,CST-1368DR,4995,6363,13615,0.548,551
2022-01-04T02:45:46,42.805,6.029,CST-1368DR,4995,6363,13613,0.549,551
2022-01-04T02:48:48,42.805,6.029,CST-1368DR,4995,6363,13615,0.548,551
2022-01-04T02:51:49,42.805,6.029,CST-1368DR,4995,6362,13613,0.549,551
2022-01-04T02:54:51,42.805,6.029,CST-1368DR,4995,6363,13614,0.549,551
2022-01-04T02:57:52,42.805,6.029,CST-1368DR,4995,6364,13615,0.548,551
2022-01-04T03:00:54,42.805,6.029,CST-1368DR,4995,6363,13614,0.549,551
2022-01-04T03:03:55,42.805,6.029,CST-1368DR,4995,6363,13615,0.548,551
2022-01-04T03:06:57,42.805,6.029,CST-1368DR,4995,6364,13615,0.548,551
2022-01-04T03:09:59,42.805,6.029,CST-1368DR,4995,6363,13614,0.549,551
2022-01-04T03:13:00,42.805,6.029,CST-1368DR,4995,6364,13615,0.548,551
2022-01-04T03:16:02,42.805,6.029,CST-1368DR,4995,6364,13615,0.548,551
2022-01-04T03:19:03,42.805,6.029,CST-1368DR,4995,6363,13613,0.549,551
2022-01-04T03:22:05,42.805,6.029,CST-1368DR,4995,6364,13615,0.548,551
2022-01-04T03:25:07,42.805,6.029,CST-1368DR,4995,6364,13615,0.548,551
2022-01-04T03:28:08,42.805,6.029,CST-1368DR,4995,6364,13615,0.548,551
2022-01-04T03:31:10,42.805,6.029,CST-1368DR,4995,6364,13615,0.548,551
2022-01-04T03:34:11,42.805,6.029,CST-1368DR,4995,6363,13614,0.549,551
2022-01-04T03:37:13,42.805,6.029,CST-1368DR,4995,6363,13614,0.549,551
2022-01-04T03:40:14,42.805,6.029,CST-1368DR,4995,6363,13614,0.549,550
2022-01-04T03:43:16,42.805,6.029,CST-1368DR,4995,6363,13615,0.548,551
2022-01-04T03:46:18,42.805,6.029,CST-1368DR,4995,6362,13611,0.550,551
2022-01-04T03:49:19,42.805,6.029,CST-1368DR,4995,6363,13614,0.549,551
2022-01-04T03:52:21,42.805,6.029,CST-1368DR,4995,6363,13614,0.549,551
2022-01-04T03:55:22,42.805,6.029,CST-1368DR,4995,6363,13614,0.549,551
2022-01-04T03:58:24,42.805,6.029,CST-1368DR,4995,6363,13614,0.549,551
2022-01-04T04:01:25,42.805,6.029,CST-1368DR,4995,6364,13615,0.548,551
2022-01-04T04:04:27,42.805,6.029,CST-1368DR,4995,6363,13614,0.549,550
2022-01-04T04:07:29,42.805,6.029,CST-1368DR,4995,6363,13615,0.548,551
2022-01-04T04:10:30,42.805,6.029,CST-1368DR,4995,6362,13613,0.549,551
2022-01-04T04:13:32,42.805,6.029,CST-1368DR,4995,6363,13615,0.548,551
2022-01-04T04:16:33,42.805,6.029,CST-1368DR,4995,6363,13614,0.549,551
2022-01-04T04:19:35,42.805,6.029,CST-1368DR,4995,6363,13614,0.549,551
2022-01-04T04:22:37,42.805,6.029,CST-1368DR,4995,6364,13615,0.548,551
2022-01-04T04:25:38,42.805,6.029,CST-1368DR,4995,6363,13614,0.549,551
2022-01-04T04:28:40,42.805,6.029,CST-1368DR,4995,6363,13614,0.549,551
2022-01-04T04:31:41,42.805,6.029,CST-1368DR,4995,6363,13615,0.548,551
2022-01-04T04:34:43,42.805,6.029,CST-1368DR,4995,6363,13615,0.548,551
2022-01-04T04:37:44,42.805,6.029,CST-1368DR,4995,6363,13614,0.549,551
2022-01-04T04:40:46,42.805,6.029,CST-1368DR,4995,6363,13613,0.549,551
2022-01-04T04:43:48,42.805,6.029,CST-1368DR,4995,6363,13613,0.549,551
2022-01-04T04:46:49,42.805,6.029,CST-1368DR,4995,6363,13614,0.549,551
2022-01-04T04:49:51,42.805,6.029,CST-1368DR,4995,6363,13613,0.549,551
2022-01-04T04:52:52,42.805,6.029,CST-1368DR,4995,6363,13613,0.549,551
2022-01-04T04:55:54,42.805,6.029,CST-1368DR,4995,6363,13614,0.549,550
2022-01-04T04:58:56,42.805,6.029,CST-1368DR,4995,6363,13614,0.549,551
2022-01-04T05:01:57,42.805,6.029,CST-1368DR,4995,6363,13614,0.549,551
2022-01-04T05:04:59,42.805,6.029,CST-1368DR,4995,6363,13614,0.549,550
2022-01-04T05:08:00,42.805,6.029,CST-1368DR,4995,6362,13613,0.549,551
2022-01-04T05:11:02,42.805,6.029,CST-1368DR,4995,6362,13612,0.549,551
2022-01-04T05:14:03,42.805,6.029,CST-1368DR,4995,6362,13613,0.549,551
2022-01-04T05:17:05,42.805,6.029,CST-1368DR,4995,6362,13613,0.549,551
2022-01-04T05:20:07,42.805,6.029,CST-1368DR,4995,6362,13613,0.549,551
2022-01-04T05:23:08,42.805,6.029,CST-1368DR,4995,6362,13612,0.549,551
2022-01-04T05:26:10,42.805,6.029,CST-1368DR,4995,6363,13613,0.549,551
2022-01-04T05:29:11,42.805,6.029,CST-1368DR,4995,6363,13613,0.549,551
2022-01-04T05:32:13,42.805,6.029,CST-1368DR,4995,6363,13613,0.549,551
2022-01-04T05:35:15,42.805,6.029,CST-1368DR,4995,6363,13613,0.549,551
2022-01-04T05:38:16,42.805,6.029,CST-1368DR,4995,6363,13613,0.549,551
2022-01-04T05:41:18,42.805,6.029,CST-1368DR,4995,6363,13614,0.549,551
2022-01-04T05:44:19,42.805,6.029,CST-1368DR,4995,6362,13612,0.549,551
2022-01-04T05:47:21,42.805,6.029,CST-1368DR,4995,6363,13615,0.548,551
2022-01-04T05:50:22,42.805,6.029,CST-1368DR,4995,6363,13614,0.549,551
2022-01-04T05:53:24,42.805,6.029,CST-1368DR,4995,6363,13615,0.548,551
2022-01-04T05:56:26,42.805,6.029,CST-1368DR,4995,6363,13614,0.549,551
2022-01-04T05:59:27,42.805,6.029,CST-1368DR,4995,6363,13614,0.549,551
2022-01-04T06:02:29,42.805,6.029,CST-1368DR,4995,6363,13615,0.548,551
2022-01-04T06:05:30,42.805,6.029,CST-1368DR,4995,6364,13615,0.548,551
2022-01-04T06:08:32,42.805,6.029,CST-1368DR,4995,6363,13614,0.549,551
2022-01-04T06:11:33,42.805,6.029,CST-1368DR,4995,6363,13614,0.549,551
2022-01-04T06:14:35,42.805,6.029,CST-1368DR,4995,6363,13614,0.549,551
2022-01-04T06:17:37,42.805,6.029,CST-1368DR,4995,6364,13615,0.548,551
2022-01-04T06:20:38,42.805,6.029,CST-1368DR,4995,6363,13614,0.549,551
2022-01-04T06:23:40,42.805,6.029,CST-1368DR,4995,6364,13615,0.548,551
2022-01-04T06:26:41,42.805,6.029,CST-1368DR,4995,6363,13615,0.548,551
2022-01-04T06:29:43,42.805,6.029,CST-1368DR,4995,6362,13611,0.550,551
2022-01-04T06:32:45,42.805,6.029,CST-1368DR,4995,6363,13613,0.549,551
2022-01-04T06:35:46,42.805,6.029,CST-1368DR,4995,6363,13613,0.549,551
2022-01-04T06:38:48,42.805,6.029,CST-1368DR,4995,6363,13613,0.549,551
2022-01-04T06:41:49,42.805,6.029,CST-1368DR,4995,6363,13614,0.549,551
2022-01-04T06:44:51,42.805,6.029,CST-1368DR,4995,6362,13613,0.549,551
2022-01-04T06:47:52,42.805,6.029,CST-1368DR,4995,6363,13614,0.549,551
2022-01-04T06:50:54,42.805,6.029,CST-1368DR,4995,6363,13614,0.549,551
2022-01-04T06:53:56,42.805,6.029,CST-1368DR,4995,6363,13614,0.549,551
2022-01-04T06:56:57,42.805,6.029,CST-1368DR,4995,6363,13614,0.549,551
2022-01-04T06:59:59,42.805,6.029,CST-1368DR,4995,6363,13614,0.549,551
2022-01-04T07:03:00,42.805,6.029,CST-1368DR,4995,6363,13614,0.549,551
2022-01-04T07:06:02,42.805,6.029,CST-1368DR,4995,6363,13613,0.549,551
2022-01-04T07:09:04,42.805,6.029,CST-1368DR,4995,6362,13611,0.550,551
2022-01-04T07:12:05,42.805,6.029,CST-1368DR,4995,6363,13614,0.549,551
2022-01-04T07:15:07,42.805,6.029,CST-1368DR,4995,6363,13614,0.549,551
2022-01-04T07:18:08,42.805,6.029,CST-1368DR,4995,6363,13614,0.549,551
2022-01-04T07:21:10,42.805,6.029,CST-1368DR,4995,6363,13614,0.549,551
2022-01-04T07:24:11,42.805,6.029,CST-1368DR,4995,6363,13614,0.549,550
2022-01-04T07:27:13,42.805,6.029,CST-1368DR,4995,6363,13615,0.548,551
2022-01-04T07:30:15,42.805,6.029,CST-1368DR,4995,6363,13615,0.548,551
2022-01-04T07:33:16,42.805,6.029,CST-1368DR,4995,6363,13614,0.549,551
2022-01-04T07:36:18,42.805,6.029,CST-1368DR,4995,6362,13612,0.549,551
2022-01-04T07:39:19,42.805,6.029,CST-1368DR,4995,6363,13614,0.549,551
2022-01-04T07:42:21,42.805,6.029,CST-1368DR,4995,6363,13613,0.549,551
2022-01-04T07:45:22,42.805,6.029,CST-1368DR,4995,6363,13615,0.548,551
2022-01-04T07:48:24,42.805,6.029,CST-1368DR,4995,6361,13610,0.550,551
2022-01-04T07:51:26,42.805,6.029,CST-1368DR,4995,6363,13614,0.549,551
2022-01-04T07:54:27,42.805,6.029,CST-1368DR,4995,6364,13615,0.548,551
2022-01-04T07:57:29,42.805,6.029,CST-1368DR,4995,6363,13614,0.549,551
2022-01-04T08:00:30,42.805,6.029,CST-1368DR,4995,6363,13615,0.548,551
2022-01-04T08:03:32,42.805,6.029,CST-1368DR,4995,6363,13613,0.549,551
2022-01-04T08:06:34,42.805,6.029,CST-1368DR,4995,6360,13607,0.551,551
2022-01-04T08:09:35,42.805,6.029,CST-1368DR,4995,6363,13614,0.549,551
2022-01-04T08:12:37,42.805,6.029,CST-1368DR,4995,6363,13613,0.549,550
2022-01-04T08:15:38,42.805,6.029,CST-1368DR,4995,6362,13612,0.549,551
2022-01-04T08:18:40,42.805,6.029,CST-1368DR,4995,6360,13608,0.551,551
2022-01-04T08:21:41,42.805,6.029,CST-1368DR,4995,6362,13613,0.549,551
2022-01-04T08:24:43,42.805,6.029,CST-1368DR,4995,6363,13614,0.549,551
2022-01-04T08:27:45,42.805,6.029,CST-1368DR,4995,6363,13614,0.549,551
2022-01-04T08:30:46,42.805,6.029,CST-1368DR,4995,6362,13612,0.549,551
2022-01-04T08:33:48,42.805,6.029,CST-1368DR,4995,6363,13614,0.549,551
2022-01-04T08:36:49,42.805,6.029,CST-1368DR,4995,6363,13614,0.549,551
2022-01-04T08:39:51,42.805,6.029,CST-1368DR,4995,6363,13614,0.549,551
2022-01-04T08:42:53,42.805,6.029,CST-1368DR,4995,6363,13613,0.549,551
2022-01-04T08:45:54,42.805,6.029,CST-1368DR,4995,6363,13614,0.549,551
2022-01-04T08:48:56,42.805,6.029,CST-1368DR,4995,6363,13614,0.549,551
2022-01-04T08:51:57,42.805,6.029,CST-1368DR,4995,6363,13614,0.549,551
2022-01-04T08:54:59,42.805,6.029,CST-1368DR,4995,6363,13615,0.548,551
2022-01-04T08:58:00,42.805,6.029,CST-1368DR,4995,6363,13614,0.549,551
2022-01-04T09:01:02,42.805,6.029,CST-1368DR,4995,6362,13611,0.550,551
2022-01-04T09:04:04,42.805,6.029,CST-1368DR,4995,6363,13613,0.549,551
2022-01-04T09:07:05,42.805,6.029,CST-1368DR,4995,6363,13614,0.549,551
2022-01-04T09:10:07,42.805,6.029,CST-1368DR,4995,6363,13614,0.549,551
2022-01-04T09:13:08,42.805,6.029,CST-1368DR,4995,6363,13613,0.549,551
2022-01-04T09:16:10,42.805,6.029,CST-1368DR,4995,6363,13614,0.549,551
2022-01-04T09:19:11,42.805,6.029,CST-1368DR,4995,6363,13614,0.549,551
2022-01-04T09:22:13,42.805,6.029,CST-1368DR,4995,6363,13615,0.548,551
2022-01-04T09:25:15,42.805,6.029,CST-1368DR,4995,6363,13614,0.549,551
2022-01-04T09:28:16,42.805,6.029,CST-1368DR,4995,6363,13614,0.549,551
2022-01-04T09:31:18,42.805,6.029,CST-1368DR,4995,6363,13614,0.549,551
2022-01-04T09:34:19,42.805,6.029,CST-1368DR,4995,6363,13614,0.549,551
2022-01-04T09:37:21,42.805,6.029,CST-1368DR,4995,6363,13613,0.549,551
2022-01-04T09:40:23,42.805,6.029,CST-1368DR,4995,6363,13614,0.549,551
2022-01-04T09:43:24,42.805,6.029,CST-1368DR,4995,6363,13614,0.549,551
2022-01-04T09:46:26,42.805,6.029,CST-1368DR,4995,6362,13612,0.549,551
2022-01-04T09:49:27,42.805,6.029,CST-1368DR,4995,6362,13613,0.549,551
2022-01-04T09:52:29,42.805,6.029,CST-1368DR,4995,6363,13613,0.549,551
2022-01-04T09:55:30,42.805,6.029,CST-1368DR,4995,6363,13614,0.549,551
2022-01-04T09:58:32,42.805,6.029,CST-1368DR,4995,6361,13609,0.550,551
2022-01-04T10:01:34,42.805,6.029,CST-1368DR,4995,6363,13614,0.549,551
2022-01-04T10:04:35,42.805,6.029,CST-1368DR,4995,6364,13615,0.548,551
2022-01-04T10:07:37,42.805,6.029,CST-1368DR,4995,6362,13613,0.549,551
2022-01-04T10:10:38,42.805,6.029,CST-1368DR,4995,6362,13612,0.549,551
2022-01-04T10:13:40,42.805,6.029,CST-1368DR,4995,6363,13614,0.549,551
2022-01-04T10:16:42,42.805,6.029,CST-1368DR,4995,6363,13614,0.549,551
2022-01-04T10:19:43,42.805,6.029,CST-1368DR,4995,6362,13613,0.549,551
2022-01-04T10:22:45,42.805,6.029,CST-1368DR,4995,6362,13612,0.549,551
2022-01-04T10:25:46,42.805,6.029,CST-1368DR,4995,6363,13613,0.549,551
2022-01-04T10:28:48,42.805,6.029,CST-1368DR,4995,6363,13613,0.549,551
2022-01-04T10:31:49,42.805,6.029,CST-1368DR,4995,6362,13612,0.549,551
2022-01-04T10:34:51,42.805,6.029,CST-1368DR,4995,6363,13615,0.548,551
2022-01-04T10:37:53,42.805,6.029,CST-1368DR,4995,6363,13614,0.549,551
2022-01-04T10:40:54,42.805,6.029,CST-1368DR,4994,6361,13611,0.550,551
2022-01-04T10:43:56,42.805,6.029,CST-1368DR,4994,6363,13616,0.548,551
2022-01-04T10:46:57,42.805,6.029,CST-1368DR,4994,6363,13616,0.548,551
2022-01-04T10:49:59,42.805,6.029,CST-1368DR,4994,6362,13615,0.548,551
2022-01-04T10:53:01,42.805,6.029,CST-1368DR,4995,6362,13612,0.549,551
2022-01-04T10:56:02,42.805,6.029,CST-1368DR,4994,6363,13616,0.548,551
2022-01-04T10:59:04,42.805,6.029,CST-1368DR,4994,6363,13617,0.548,551
2022-01-04T11:02:05,42.805,6.029,CST-1368DR,4995,6363,13614,0.549,551
2022-01-04T11:05:07,42.805,6.029,CST-1368DR,4994,6363,13616,0.548,551
2022-01-04T11:08:08,42.805,6.029,CST-1368DR,4994,6362,13614,0.549,551
2022-01-04T11:11:10,42.805,6.029,CST-1368DR,4995,6363,13614,0.549,551
2022-01-04T11:14:12,42.805,6.029,CST-1368DR,4994,6363,13616,0.548,551
2022-01-04T11:17:13,42.805,6.029,CST-1368DR,4994,6363,13617,0.548,551
2022-01-04T11:20:15,42.805,6.029,CST-1368DR,4995,6363,13615,0.548,551
2022-01-04T11:23:16,42.805,6.029,CST-1368DR,4994,6362,13615,0.548,551
2022-01-04T11:26:18,42.805,6.029,CST-1368DR,4995,6363,13614,0.549,551
2022-01-04T11:29:20,42.805,6.029,CST-1368DR,4994,6362,13615,0.548,551
2022-01-04T11:32:21,42.805,6.029,CST-1368DR,4994,6362,13615,0.548,551
2022-01-04T11:35:23,42.805,6.029,CST-1368DR,4994,6362,13614,0.549,551
2022-01-04T11:38:24,42.805,6.029,CST-1368DR,4995,6362,13613,0.549,551
2022-01-04T11:41:26,42.805,6.029,CST-1368DR,4994,6362,13615,0.548,551
2022-01-04T11:44:27,42.805,6.029,CST-1368DR,4994,6362,13615,0.548,551
2022-01-04T11:47:29,42.805,6.029,CST-1368DR,4994,6363,13616,0.548,551
2022-01-04T11:50:31,42.805,6.029,CST-1368DR,4994,6363,13616,0.548,551
2022-01-04T11:53:32,42.805,6.029,CST-1368DR,4994,6363,13616,0.548,551
2022-01-04T11:56:34,42.805,6.029,CST-1368DR,4994,6362,13615,0.548,551
2022-01-04T11:59:35,42.805,6.029,CST-1368DR,4994,6363,13616,0.548,551
2022-01-04T12:02:37,42.805,6.029,CST-1368DR,4995,6362,13612,0.549,551
2022-01-04T12:05:38,42.805,6.029,CST-1368DR,4995,6363,13613,0.549,551
2022-01-04T12:08:40,42.805,6.029,CST-1368DR,4995,6363,13613,0.549,551
2022-01-04T12:11:42,42.805,6.029,CST-1368DR,4995,6363,13614,0.549,551
2022-01-04T12:14:43,42.805,6.029,CST-1368DR,4995,6363,13614,0.549,551
2022-01-04T12:17:45,42.805,6.029,CST-1368DR,4995,6363,13613,0.549,551
2022-01-04T12:20:46,42.805,6.029,CST-1368DR,4994,6363,13616,0.548,551
2022-01-04T12:23:48,42.805,6.029,CST-1368DR,4995,6363,13614,0.549,551
2022-01-04T12:26:50,42.805,6.029,CST-1368DR,4994,6363,13616,0.548,551
2022-01-04T12:29:51,42.805,6.029,CST-1368DR,4994,6363,13616,0.548,551
2022-01-04T12:32:53,42.805,6.029,CST-1368DR,4994,6362,13615,0.548,551
2022-01-04T12:35:54,42.805,6.029,CST-1368DR,4994,6362,13615,0.548,551
2022-01-04T12:38:56,42.805,6.029,CST-1368DR,4995,6363,13613,0.549,551
2022-01-04T12:41:57,42.805,6.029,CST-1368DR,4994,6363,13617,0.548,551
2022-01-04T12:44:59,42.805,6.029,CST-1368DR,4995,6362,13613,0.549,551
2022-01-04T12:48:01,42.805,6.029,CST-1368DR,4995,6362,13612,0.549,551
2022-01-04T12:51:02,42.805,6.029,CST-1368DR,4994,6363,13617,0.548,551
2022-01-04T12:54:04,42.805,6.029,CST-1368DR,4994,6362,13615,0.548,551
2022-01-04T12:57:05,42.805,6.029,CST-1368DR,4994,6362,13614,0.549,551
2022-01-04T13:00:07,42.805,6.029,CST-1368DR,4994,6362,13615,0.548,551
2022-01-04T13:03:09,42.805,6.029,CST-1368DR,4994,6363,13617,0.548,551
2022-01-04T13:06:10,42.805,6.029,CST-1368DR,4995,6363,13614,0.549,551
2022-01-04T13:09:12,42.805,6.029,CST-1368DR,4994,6363,13616,0.548,550
2022-01-04T13:12:13,42.805,6.029,CST-1368DR,4994,6362,13615,0.548,551
2022-01-04T13:15:15,42.805,6.029,CST-1368DR,4994,6362,13615,0.548,551
2022-01-04T13:18:16,42.805,6.029,CST-1368DR,4994,6362,13615,0.548,551
2022-01-04T13:21:18,42.805,6.029,CST-1368DR,4994,6363,13616,0.548,551
2022-01-04T13:24:20,42.805,6.029,CST-1368DR,4994,6363,13616,0.548,551
2022-01-04T13:27:21,42.805,6.029,CST-1368DR,4994,6363,13616,0.548,551
2022-01-04T13:30:23,42.805,6.029,CST-1368DR,4994,6362,13615,0.548,551
2022-01-04T13:33:24,42.805,6.029,CST-1368DR,4994,6362,13614,0.549,551
2022-01-04T13:36:26,42.805,6.029,CST-1368DR,4994,6363,13616,0.548,551
2022-01-04T13:39:28,42.805,6.029,CST-1368DR,4994,6362,13615,0.548,551
2022-01-04T13:42:29,42.805,6.029,CST-1368DR,4994,6362,13615,0.548,551
2022-01-04T13:45:31,42.805,6.029,CST-1368DR,4994,6363,13616,0.548,551
2022-01-04T13:48:32,42.805,6.029,CST-1368DR,4994,6363,13616,0.548,551
2022-01-04T13:51:34,42.805,6.029,CST-1368DR,4994,6363,13616,0.548,551
2022-01-04T13:54:35,42.805,6.029,CST-1368DR,4994,6363,13616,0.548,551
2022-01-04T13:57:37,42.805,6.029,CST-1368DR,4994,6361,13612,0.549,551
2022-01-04T14:00:39,42.805,6.029,CST-1368DR,4994,6362,13614,0.549,551
2022-01-04T14:03:40,42.805,6.029,CST-1368DR,4994,6363,13616,0.548,551
2022-01-04T14:06:42,42.805,6.029,CST-1368DR,4994,6363,13616,0.548,551
2022-01-04T14:09:43,42.805,6.029,CST-1368DR,4994,6362,13615,0.548,551
2022-01-04T14:12:45,42.805,6.029,CST-1368DR,4994,6363,13616,0.548,551
2022-01-04T14:15:46,42.805,6.029,CST-1368DR,4994,6363,13617,0.548,551
2022-01-04T14:18:48,42.805,6.029,CST-1368DR,4994,6362,13615,0.548,551
2022-01-04T14:21:50,42.805,6.029,CST-1368DR,4994,6362,13615,0.548,551
2022-01-04T14:24:51,42.805,6.029,CST-1368DR,4994,6362,13615,0.548,551
2022-01-04T14:27:53,42.805,6.029,CST-1368DR,4994,6361,13612,0.549,551
2022-01-04T14:30:54,42.805,6.029,CST-1368DR,4994,6363,13616,0.548,551
2022-01-04T14:33:56,42.805,6.029,CST-1368DR,4994,6363,13616,0.548,551
2022-01-04T14:36:58,42.805,6.029,CST-1368DR,4994,6362,13614,0.549,551
2022-01-04T14:39:59,42.805,6.029,CST-1368DR,4994,6362,13615,0.548,551
2022-01-04T14:43:01,42.805,6.029,CST-1368DR,4994,6362,13614,0.549,551
2022-01-04T14:46:02,42.805,6.029,CST-1368DR,4994,6363,13617,0.548,551
2022-01-04T14:49:04,42.805,6.029,CST-1368DR,4994,6362,13614,0.549,551
2022-01-04T14:52:05,42.805,6.029,CST-1368DR,4994,6362,13615,0.548,551
2022-01-04T14:55:07,42.805,6.029,CST-1368DR,4994,6362,13615,0.548,551
2022-01-04T14:58:09,42.805,6.029,CST-1368DR,4994,6362,13615,0.548,551
2022-01-04T15:01:10,42.805,6.029,CST-1368DR,4994,6362,13615,0.548,551
2022-01-04T15:04:12,42.805,6.029,CST-1368DR,4994,6362,13614,0.549,551
2022-01-04T15:07:13,42.805,6.029,CST-1368DR,4994,6362,13615,0.548,551
2022-01-04T15:10:15,42.805,6.029,CST-1368DR,4994,6359,13607,0.551,551
2022-01-04T15:13:17,42.805,6.029,CST-1368DR,4994,6362,13614,0.549,551
2022-01-04T15:16:18,42.805,6.029,CST-1368DR,4994,6362,13615,0.548,551
2022-01-04T15:19:20,42.805,6.029,CST-1368DR,4994,6362,13615,0.548,551
2022-01-04T15:22:21,42.805,6.029,CST-1368DR,4994,6362,13614,0.549,551
2022-01-04T15:25:23,42.805,6.029,CST-1368DR,4994,6362,13614,0.549,551
2022-01-04T15:28:24,42.805,6.029,CST-1368DR,4994,6362,13614,0.549,551
2022-01-04T15:31:26,42.805,6.029,CST-1368DR,4994,6361,13612,0.549,551
2022-01-04T15:34:28,42.805,6.029,CST-1368DR,4994,6361,13612,0.549,550
2022-01-04T15:37:29,42.805,6.029,CST-1368DR,4994,6362,13614,0.549,551
2022-01-04T15:40:31,42.805,6.029,CST-1368DR,4994,6362,13615,0.548,551
2022-01-04T15:43:32,42.805,6.029,CST-1368DR,4994,6362,13614,0.549,551
2022-01-04T15:46:34,42.805,6.029,CST-1368DR,4994,6361,13612,0.549,551
2022-01-04T15:49:36,42.805,6.029,CST-1368DR,4994,6362,13614,0.549,551
2022-01-04T15:52:37,42.805,6.029,CST-1368DR,4994,6361,13612,0.549,551
2022-01-04T15:55:39,42.805,6.029,CST-1368DR,4994,6362,13614,0.549,551
2022-01-04T15:58:40,42.805,6.029,CST-1368DR,4994,6361,13612,0.549,551
2022-01-04T16:01:42,42.805,6.029,CST-1368DR,4994,6362,13614,0.549,551
2022-01-04T16:04:43,42.805,6.029,CST-1368DR,4994,6362,13614,0.549,551
2022-01-04T16:07:45,42.805,6.029,CST-1368DR,4994,6361,13612,0.549,551
2022-01-04T16:10:47,42.805,6.029,CST-1368DR,4994,6362,13614,0.549,551
2022-01-04T16:13:48,42.805,6.029,CST-1368DR,4994,6362,13614,0.549,551
2022-01-04T16:16:50,42.805,6.029,CST-1368DR,4994,6362,13614,0.549,551
2022-01-04T16:19:51,42.805,6.029,CST-1368DR,4994,6362,13614,0.549,551
2022-01-04T16:22:53,42.805,6.029,CST-1368DR,4994,6361,13612,0.549,551
2022-01-04T16:25:54,42.805,6.029,CST-1368DR,4994,6361,13612,0.549,551
2022-01-04T16:28:56,42.805,6.029,CST-1368DR,4994,6361,13611,0.550,551
2022-01-04T16:31:58,42.805,6.029,CST-1368DR,4994,6361,13612,0.549,551
2022-01-04T16:34:59,42.805,6.029,CST-1368DR,4994,6361,13612,0.549,550
2022-01-04T16:38:01,42.805,6.029,CST-1368DR,4994,6361,13612,0.549,550
2022-01-04T16:41:02,42.805,6.029,CST-1368DR,4994,6360,13610,0.550,551
2022-01-04T16:44:04,42.805,6.029,CST-1368DR,4994,6360,13610,0.550,551
2022-01-04T16:47:06,42.805,6.029,CST-1368DR,4994,6361,13611,0.550,551
2022-01-04T16:50:07,42.805,6.029,CST-1368DR,4994,6361,13611,0.550,551
2022-01-04T16:53:09,42.805,6.029,CST-1368DR,4994,6360,13610,0.550,551